Time,TemperatureF,DewpointF,PressureIn,WindDirection,WindDirectionDegrees,WindSpeedMPH,WindSpeedGustMPH,Humidity,HourlyPrecipIn,Conditions,Clouds,dailyrainin,SoftwareType,DateUTC
2013-06-13 00:00:00,78.4,76.7,29.91,SW,215,8.6,9.4,94,0.00, ,,-99.99,VWS V12.07,2013-06-13 04:00:00,
2013-06-13 00:02:00,79.1,77.3,29.91,SW,219,7.5,9.4,94,0.00, ,,-99.99,VWS V12.07,2013-06-13 04:02:00,
2013-06-13 00:03:00,78.5,76.7,29.91,SW,218,7.3,9.8,94,0.00, ,,-99.99,VWS V12.07,2013-06-13 04:03:00,
2013-06-13 00:06:00,78.7,77.0,29.91,SW,232,6.2,10.4,94,0.00, ,,-99.99,VWS V12.07,2013-06-13 04:06:00,
2013-06-13 00:08:00,78.2,76.5,29.91,WSW,253,10.4,10.5,95,0.00, ,,-99.99,VWS V12.07,2013-06-13 04:08:00,
2013-06-13 00:10:00,78.4,76.7,29.91,SSW,208,7.1,10.6,95,0.00, ,,-99.99,VWS V12.07,2013-06-13 04:10:00,
2013-06-13 00:15:00,78.4,76.8,29.91,SW,228,7.1,11.6,95,0.00, ,,-99.99,VWS V12.07,2013-06-13 04:15:00,
2013-06-13 00:21:00,78.5,76.9,29.91,SW,216,11.7,12.7,95,0.00, ,,-99.99,VWS V12.07,2013-06-13 04:21:00,
2013-06-13 00:26:00,13.8,5.7,27.88,WSW,243,0.0,13.9,70,0.00, ,,-99.99,VWS V12.07,2013-06-13 04:26:00,
2013-06-13 00:32:00,78.7,77.2,29.90,SW,216,10.0,13.9,95,0.00, ,,-99.99,VWS V12.07,2013-06-13 04:32:00,
2013-06-13 00:38:00,78.5,77.1,29.90,SW,236,10.6,13.4,95,0.00, ,,-99.99,VWS V12.07,2013-06-13 04:38:00,
2013-06-13 00:43:00,78.0,76.5,29.90,SW,222,10.4,14.0,95,0.00, ,,-99.99,VWS V12.07,2013-06-13 04:43:00,
2013-06-13 00:49:00,78.1,76.6,29.90,SW,229,11.6,14.0,95,0.00, ,,-99.99,VWS V12.07,2013-06-13 04:49:00,
2013-06-13 00:57:00,78.2,76.7,29.90,SW,236,9.4,10.1,95,0.00, ,,-99.99,VWS V12.07,2013-06-13 04:57:00,
2013-06-13 01:03:00,78.2,76.7,29.90,SW,225,7.7,12.2,95,0.00, ,,-99.99,VWS V12.07,2013-06-13 05:03:00,
2013-06-13 01:09:00,78.2,76.7,29.90,South,184,6.6,12.2,95,0.00, ,,-99.99,VWS V12.07,2013-06-13 05:09:00,
2013-06-13 01:14:00,78.2,76.7,29.90,SW,218,9.5,12.9,95,0.00, ,,-99.99,VWS V12.07,2013-06-13 05:14:00,
2013-06-13 01:19:00,78.2,76.7,29.90,SW,232,7.1,11.2,95,0.00, ,,-99.99,VWS V12.07,2013-06-13 05:19:00,
2013-06-13 01:25:00,78.3,76.8,29.89,SW,233,11.4,13.4,95,0.00, ,,-99.99,VWS V12.07,2013-06-13 05:25:00,
2013-06-13 01:30:00,78.0,76.6,29.89,SW,223,11.7,14.6,95,0.00, ,,-99.99,VWS V12.07,2013-06-13 05:30:00,
2013-06-13 01:36:00,78.1,76.7,29.89,WSW,237,11.0,11.6,95,0.00, ,,-99.99,VWS V12.07,2013-06-13 05:36:00,
2013-06-13 01:42:00,78.4,76.9,29.89,WSW,237,9.7,12.1,95,0.00, ,,-99.99,VWS V12.07,2013-06-13 05:42:00,
2013-06-13 01:47:00,78.2,76.8,29.89,SW,235,8.1,12.1,95,0.00, ,,-99.99,VWS V12.07,2013-06-13 05:47:00,
2013-06-13 01:52:00,78.4,76.9,29.89,WSW,243,6.4,12.1,95,0.00, ,,-99.99,VWS V12.07,2013-06-13 05:52:00,
2013-06-13 01:58:00,78.4,77.0,29.89,SW,229,8.9,10.7,95,0.00, ,,-99.99,VWS V12.07,2013-06-13 05:58:00,
2013-06-13 02:03:00,78.0,76.6,29.89,SW,218,6.0,10.7,95,0.00, ,,-99.99,VWS V12.07,2013-06-13 06:03:00,
2013-06-13 02:09:00,78.1,76.7,29.89,SW,229,11.4,11.9,96,0.00, ,,-99.99,VWS V12.07,2013-06-13 06:09:00,
2013-06-13 02:15:00,77.9,76.6,29.89,SW,220,9.9,13.0,96,0.00, ,,-99.99,VWS V12.07,2013-06-13 06:15:00,
2013-06-13 02:21:00,77.8,70.5,29.89,SW,226,10.0,13.0,78,0.00, ,,-99.99,VWS V12.07,2013-06-13 06:21:00,
2013-06-13 02:26:00,77.9,76.6,29.88,SW,223,9.9,13.0,96,0.00, ,,-99.99,VWS V12.07,2013-06-13 06:26:00,
2013-06-13 02:32:00,78.3,77.0,29.88,SW,219,8.3,13.0,96,0.00, ,,-99.99,VWS V12.07,2013-06-13 06:32:00,
2013-06-13 02:37:00,77.9,76.6,29.88,SW,225,10.5,10.5,96,0.00, ,,-99.99,VWS V12.07,2013-06-13 06:37:00,
2013-06-13 02:42:00,77.7,76.5,29.88,WSW,239,8.3,12.4,96,0.00, ,,-99.99,VWS V12.07,2013-06-13 06:42:00,
2013-06-13 02:47:00,77.8,76.6,29.88,SW,229,11.5,14.2,96,0.00, ,,-99.99,VWS V12.07,2013-06-13 06:47:00,
2013-06-13 02:53:00,78.0,70.6,29.88,SW,222,8.5,14.2,78,0.00, ,,-99.99,VWS V12.07,2013-06-13 06:53:00,
2013-06-13 02:58:00,78.0,76.8,29.88,SSW,209,10.7,14.2,96,0.00, ,,-99.99,VWS V12.07,2013-06-13 06:58:00,
2013-06-13 03:05:00,77.7,76.5,29.88,SW,233,7.4,14.2,96,0.00, ,,-99.99,VWS V12.07,2013-06-13 07:05:00,
2013-06-13 03:10:00,78.0,76.8,29.88,WSW,242,9.1,14.2,96,0.00, ,,-99.99,VWS V12.07,2013-06-13 07:10:00,
2013-06-13 03:16:00,77.4,76.3,29.88,SW,228,9.8,14.2,96,0.00, ,,-99.99,VWS V12.07,2013-06-13 07:16:00,
2013-06-13 03:22:00,77.8,76.7,29.87,SW,232,12.1,12.1,96,0.00, ,,-99.99,VWS V12.07,2013-06-13 07:22:00,
2013-06-13 03:28:00,77.8,76.7,29.87,SW,229,10.7,12.7,96,0.00, ,,-99.99,VWS V12.07,2013-06-13 07:28:00,
2013-06-13 03:35:00,77.7,76.7,29.87,SW,233,10.4,13.2,97,0.00, ,,-99.99,VWS V12.07,2013-06-13 07:35:00,
2013-06-13 03:40:00,77.4,76.4,29.87,SW,219,12.6,14.0,97,0.00, ,,-99.99,VWS V12.07,2013-06-13 07:40:00,
2013-06-13 03:46:00,78.0,77.0,29.87,SW,216,13.9,14.9,97,0.00, ,,-99.99,VWS V12.07,2013-06-13 07:46:00,
2013-06-13 03:51:00,78.2,77.2,29.87,SW,225,11.9,15.5,97,0.00, ,,-99.99,VWS V12.07,2013-06-13 07:51:00,
2013-06-13 03:58:00,78.2,77.2,29.87,SW,228,9.9,15.5,97,0.00, ,,-99.99,VWS V12.07,2013-06-13 07:58:00,
2013-06-13 04:04:00,77.8,76.8,29.87,WSW,237,12.2,15.5,97,0.00, ,,-99.99,VWS V12.07,2013-06-13 08:04:00,
2013-06-13 04:11:00,77.9,76.9,29.87,SW,235,11.2,15.5,97,0.00, ,,-99.99,VWS V12.07,2013-06-13 08:11:00,
2013-06-13 04:16:00,77.9,76.9,29.87,SW,222,9.7,10.1,97,0.00, ,,-99.99,VWS V12.07,2013-06-13 08:16:00,
2013-06-13 04:22:00,78.4,77.4,29.87,SW,233,6.6,11.8,97,0.00, ,,-99.99,VWS V12.07,2013-06-13 08:22:00,
2013-06-13 04:27:00,77.9,76.9,29.87,SW,223,12.1,12.1,97,0.00, ,,-99.99,VWS V12.07,2013-06-13 08:27:00,
2013-06-13 04:33:00,78.2,77.3,29.87,SW,225,10.3,12.2,97,0.00, ,,-99.99,VWS V12.07,2013-06-13 08:33:00,
2013-06-13 04:39:00,78.2,77.3,29.87,SW,233,9.5,12.4,97,0.00, ,,-99.99,VWS V12.07,2013-06-13 08:39:00,
2013-06-13 04:44:00,78.1,77.2,29.87,SW,225,10.7,12.4,97,0.00, ,,-99.99,VWS V12.07,2013-06-13 08:44:00,
2013-06-13 04:49:00,78.0,77.1,29.87,SW,220,9.7,12.4,97,0.00, ,,-99.99,VWS V12.07,2013-06-13 08:49:00,
2013-06-13 04:55:00,77.9,77.1,29.87,SW,229,12.3,12.6,97,0.00, ,,-99.99,VWS V12.07,2013-06-13 08:55:00,
2013-06-13 05:00:00,78.0,77.2,29.87,SW,225,9.5,13.0,97,0.00, ,,-99.99,VWS V12.07,2013-06-13 09:00:00,
2013-06-13 05:06:00,78.3,30.6,29.87,SW,230,10.3,13.4,18,0.00, ,,-99.99,VWS V12.07,2013-06-13 09:06:00,
2013-06-13 05:13:00,77.7,77.0,29.87,SW,218,13.4,13.6,98,0.00, ,,-99.99,VWS V12.07,2013-06-13 09:13:00,
2013-06-13 05:18:00,78.1,77.4,29.87,SW,222,11.9,13.6,98,0.00, ,,-99.99,VWS V12.07,2013-06-13 09:18:00,
2013-06-13 05:24:00,78.0,77.3,29.87,SW,235,11.7,13.6,98,0.00, ,,-99.99,VWS V12.07,2013-06-13 09:24:00,
2013-06-13 05:29:00,77.9,77.2,29.86,SW,223,10.4,13.6,98,0.00, ,,-99.99,VWS V12.07,2013-06-13 09:29:00,
2013-06-13 05:36:00,77.9,77.2,29.86,SW,228,9.8,13.6,98,0.00, ,,-99.99,VWS V12.07,2013-06-13 09:36:00,
2013-06-13 05:41:00,77.8,77.1,29.86,SW,228,11.8,13.9,98,0.00, ,,-99.99,VWS V12.07,2013-06-13 09:41:00,
2013-06-13 05:47:00,78.2,77.6,29.86,SW,226,12.8,14.5,98,0.00, ,,-99.99,VWS V12.07,2013-06-13 09:47:00,
2013-06-13 05:54:00,77.9,77.3,29.86,SW,218,11.5,14.5,98,0.00, ,,-99.99,VWS V12.07,2013-06-13 09:54:00,
2013-06-13 06:00:00,77.9,77.3,29.87,SW,220,12.7,14.7,98,0.00, ,,-99.99,VWS V12.07,2013-06-13 10:00:00,
2013-06-13 06:05:00,78.2,77.6,29.86,SW,218,9.8,16.9,98,0.00, ,,-99.99,VWS V12.07,2013-06-13 10:05:00,
2013-06-13 06:11:00,77.9,77.3,29.86,SW,220,11.5,16.9,98,0.00, ,,-99.99,VWS V12.07,2013-06-13 10:11:00,
2013-06-13 06:16:00,78.1,77.5,29.86,SW,232,9.4,9.4,98,0.00, ,,-99.99,VWS V12.07,2013-06-13 10:16:00,
2013-06-13 06:22:00,78.2,77.6,29.86,SW,233,9.9,14.7,98,0.00, ,,-99.99,VWS V12.07,2013-06-13 10:22:00,
2013-06-13 06:27:00,78.1,77.5,29.85,SW,225,11.1,14.9,98,0.00, ,,-99.99,VWS V12.07,2013-06-13 10:27:00,
2013-06-13 06:33:00,77.8,77.2,29.85,SW,229,9.7,14.9,98,0.00, ,,-99.99,VWS V12.07,2013-06-13 10:33:00,
2013-06-13 06:39:00,78.1,77.5,29.85,SW,232,9.9,12.7,98,0.00, ,,-99.99,VWS V12.07,2013-06-13 10:39:00,
2013-06-13 06:44:00,78.2,77.6,29.85,SW,220,6.8,12.9,98,0.00, ,,-99.99,VWS V12.07,2013-06-13 10:44:00,
2013-06-13 06:49:00,77.9,77.3,29.85,SW,222,6.9,12.9,98,0.00, ,,-99.99,VWS V12.07,2013-06-13 10:49:00,
2013-06-13 06:55:00,78.3,71.0,29.85,WSW,247,9.2,14.9,78,0.00, ,,-99.99,VWS V12.07,2013-06-13 10:55:00,
2013-06-13 07:00:00,78.4,77.7,29.86,SW,222,5.2,10.2,98,0.00, ,,-99.99,VWS V12.07,2013-06-13 11:00:00,
2013-06-13 07:06:00,78.3,77.6,29.85,WSW,250,6.0,11.1,98,0.00, ,,-99.99,VWS V12.07,2013-06-13 11:06:00,
2013-06-13 07:11:00,78.5,77.7,29.85,SW,218,8.0,12.9,98,0.00, ,,-99.99,VWS V12.07,2013-06-13 11:11:00,
2013-06-13 07:17:00,78.3,77.4,29.85,SSW,197,7.5,11.4,97,0.00, ,,-99.99,VWS V12.07,2013-06-13 11:17:00,
2013-06-13 07:22:00,78.8,77.9,29.85,SW,216,9.7,11.4,97,0.00, ,,-99.99,VWS V12.07,2013-06-13 11:22:00,
2013-06-13 07:28:00,78.5,77.5,29.84,WSW,249,9.6,11.4,97,0.00, ,,-99.99,VWS V12.07,2013-06-13 11:28:00,
2013-06-13 07:34:00,78.9,77.9,29.85,WSW,242,7.0,12.7,97,0.00, ,,-99.99,VWS V12.07,2013-06-13 11:34:00,
2013-06-13 07:39:00,78.8,77.6,29.85,WSW,237,6.1,11.8,96,0.00, ,,-99.99,VWS V12.07,2013-06-13 11:39:00,
2013-06-13 07:45:00,79.0,77.7,29.84,SW,222,12.7,13.5,96,0.00, ,,-99.99,VWS V12.07,2013-06-13 11:45:00,
2013-06-13 07:52:00,78.8,77.5,29.84,SW,215,9.5,15.0,96,0.00, ,,-99.99,VWS V12.07,2013-06-13 11:52:00,
2013-06-13 07:57:00,78.8,77.4,29.84,WSW,247,7.1,11.5,96,0.96, ,,-99.99,VWS V12.07,2013-06-13 11:57:00,
2013-06-13 08:03:00,79.1,77.7,29.84,SW,226,12.7,17.1,95,0.96, ,,-99.99,VWS V12.07,2013-06-13 12:03:00,
2013-06-13 08:10:00,78.9,77.5,29.84,SW,223,13.7,18.0,95,0.96, ,,-99.99,VWS V12.07,2013-06-13 12:10:00,
2013-06-13 08:15:00,78.9,77.4,29.84,SW,215,15.3,18.9,95,0.96, ,,-99.99,VWS V12.07,2013-06-13 12:15:00,
2013-06-13 08:21:00,79.0,77.5,29.84,SW,220,15.3,18.5,95,0.00, ,,-99.99,VWS V12.07,2013-06-13 12:21:00,
2013-06-13 08:26:00,79.0,77.3,29.84,SW,218,14.7,20.7,95,0.00, ,,-99.99,VWS V12.07,2013-06-13 12:26:00,
2013-06-13 08:32:00,79.1,77.4,29.84,SW,219,11.0,20.7,94,0.00, ,,-99.99,VWS V12.07,2013-06-13 12:32:00,
2013-06-13 08:38:00,79.4,77.7,29.84,SW,220,16.7,18.5,95,0.00, ,,-99.99,VWS V12.07,2013-06-13 12:38:00,
2013-06-13 08:44:00,79.1,77.2,29.84,SW,220,17.0,20.9,94,0.00, ,,-99.99,VWS V12.07,2013-06-13 12:44:00,
2013-06-13 08:49:00,79.1,77.3,29.83,SW,223,16.0,25.0,94,0.00, ,,-99.99,VWS V12.07,2013-06-13 12:49:00,
2013-06-13 08:55:00,79.2,77.4,29.83,SSW,206,14.8,25.0,94,0.00, ,,-99.99,VWS V12.07,2013-06-13 12:55:00,
2013-06-13 09:00:00,79.2,77.4,29.84,SSW,208,13.5,19.9,94,0.00, ,,-99.99,VWS V12.07,2013-06-13 13:00:00,
2013-06-13 09:06:00,79.4,77.5,29.84,SW,225,16.3,19.9,94,0.00, ,,-99.99,VWS V12.07,2013-06-13 13:06:00,
2013-06-13 09:11:00,79.7,77.7,29.84,SSW,208,15.4,19.9,94,0.00, ,,-99.99,VWS V12.07,2013-06-13 13:11:00,
2013-06-13 09:17:00,79.4,77.5,29.84,SW,228,16.3,16.3,94,0.00, ,,-99.99,VWS V12.07,2013-06-13 13:17:00,
2013-06-13 09:22:00,79.7,77.6,29.84,SSW,213,14.4,19.1,93,0.00, ,,-99.99,VWS V12.07,2013-06-13 13:22:00,
2013-06-13 09:28:00,79.9,77.7,29.83,SW,223,22.4,24.0,93,0.00, ,,-99.99,VWS V12.07,2013-06-13 13:28:00,
2013-06-13 09:33:00,79.7,77.4,29.83,SW,230,18.5,27.0,93,0.00, ,,-99.99,VWS V12.07,2013-06-13 13:33:00,
2013-06-13 09:39:00,79.8,77.4,29.83,SW,232,21.9,23.3,92,0.00, ,,-99.99,VWS V12.07,2013-06-13 13:39:00,
2013-06-13 09:45:00,80.1,77.8,29.83,SW,225,21.1,25.7,93,0.00, ,,-99.99,VWS V12.07,2013-06-13 13:45:00,
2013-06-13 09:51:00,80.0,77.4,29.83,SW,226,17.3,25.7,92,0.00, ,,-99.99,VWS V12.07,2013-06-13 13:51:00,
2013-06-13 09:56:00,79.8,77.3,29.83,SW,228,22.3,22.3,92,0.00, ,,-99.99,VWS V12.07,2013-06-13 13:56:00,
2013-06-13 10:02:00,80.3,77.8,29.83,SW,228,19.8,23.4,92,0.00, ,,-99.99,VWS V12.07,2013-06-13 14:02:00,
2013-06-13 10:08:00,80.1,77.6,29.83,SW,216,18.4,23.4,92,0.00, ,,-99.99,VWS V12.07,2013-06-13 14:08:00,
2013-06-13 10:13:00,79.9,77.3,29.83,SW,230,19.1,23.4,92,0.00, ,,-99.99,VWS V12.07,2013-06-13 14:13:00,
2013-06-13 10:18:00,80.0,77.4,29.83,SW,218,16.8,19.3,92,0.00, ,,-99.99,VWS V12.07,2013-06-13 14:18:00,
2013-06-13 10:24:00,79.9,77.2,29.83,SW,223,20.3,23.3,92,0.00, ,,-99.99,VWS V12.07,2013-06-13 14:24:00,
2013-06-13 10:29:00,80.2,77.7,29.82,WSW,242,22.3,23.3,92,0.00, ,,-99.99,VWS V12.07,2013-06-13 14:29:00,
2013-06-13 10:35:00,79.9,77.2,29.82,SW,218,16.6,27.7,92,0.00, ,,-99.99,VWS V12.07,2013-06-13 14:35:00,
2013-06-13 10:41:00,80.1,77.4,29.82,SW,220,21.5,27.7,91,0.00, ,,-99.99,VWS V12.07,2013-06-13 14:41:00,
2013-06-13 10:47:00,80.1,77.3,29.82,SW,232,18.2,27.7,91,0.00, ,,-99.99,VWS V12.07,2013-06-13 14:47:00,
2013-06-13 10:52:00,80.0,77.3,29.82,SSW,212,16.7,27.7,92,0.00, ,,-99.99,VWS V12.07,2013-06-13 14:52:00,
2013-06-13 10:58:00,80.0,77.2,29.82,SW,222,16.8,27.7,91,0.00, ,,-99.99,VWS V12.07,2013-06-13 14:58:00,
2013-06-13 11:04:00,80.2,77.2,29.83,SW,223,18.7,27.7,91,0.00, ,,-99.99,VWS V12.07,2013-06-13 15:04:00,
2013-06-13 11:10:00,80.2,77.2,29.83,SW,216,16.8,27.7,91,0.00, ,,-99.99,VWS V12.07,2013-06-13 15:10:00,
2013-06-13 11:17:00,80.0,77.2,29.83,SW,223,16.2,27.7,91,0.00, ,,-99.99,VWS V12.07,2013-06-13 15:17:00,
2013-06-13 11:22:00,80.0,77.1,29.83,SW,222,16.8,27.7,91,0.00, ,,-99.99,VWS V12.07,2013-06-13 15:22:00,
2013-06-13 11:28:00,80.2,77.2,29.83,SW,225,19.3,27.7,91,0.00, ,,-99.99,VWS V12.07,2013-06-13 15:28:00,
2013-06-13 11:33:00,80.4,77.5,29.83,SW,220,17.5,27.7,91,0.00, ,,-99.99,VWS V12.07,2013-06-13 15:33:00,
2013-06-13 11:40:00,80.2,77.2,29.82,SW,229,22.6,22.6,91,0.00, ,,-99.99,VWS V12.07,2013-06-13 15:40:00,
2013-06-13 11:45:00,80.3,77.3,29.82,SW,219,18.1,22.7,91,0.00, ,,-99.99,VWS V12.07,2013-06-13 15:45:00,
2013-06-13 11:50:00,80.4,77.5,29.82,SW,228,15.8,22.7,91,0.00, ,,-99.99,VWS V12.07,2013-06-13 15:50:00,
2013-06-13 11:55:00,80.2,77.3,29.82,SW,229,19.9,22.7,91,0.00, ,,-99.99,VWS V12.07,2013-06-13 15:55:00,
2013-06-13 12:00:00,80.2,77.3,29.82,SW,229,18.6,24.3,91,0.00, ,,-99.99,VWS V12.07,2013-06-13 16:00:00,
2013-06-13 12:06:00,80.3,77.4,29.81,SW,215,18.4,24.3,91,0.00, ,,-99.99,VWS V12.07,2013-06-13 16:06:00,
2013-06-13 12:12:00,80.1,77.0,29.80,SW,225,16.7,24.5,90,0.00, ,,-99.99,VWS V12.07,2013-06-13 16:12:00,
2013-06-13 12:17:00,80.3,77.2,29.80,SW,226,17.4,22.0,90,0.00, ,,-99.99,VWS V12.07,2013-06-13 16:17:00,
2013-06-13 12:22:00,80.3,77.2,29.80,SSW,212,18.3,27.0,90,0.00, ,,-99.99,VWS V12.07,2013-06-13 16:22:00,
2013-06-13 12:28:00,80.3,77.1,29.80,SW,226,16.5,27.0,90,0.00, ,,-99.99,VWS V12.07,2013-06-13 16:28:00,
2013-06-13 12:33:00,80.2,77.1,29.80,SW,226,24.0,27.0,90,0.00, ,,-99.99,VWS V12.07,2013-06-13 16:33:00,
2013-06-13 12:39:00,80.4,77.4,29.79,SSW,195,19.3,28.1,91,0.00, ,,-99.99,VWS V12.07,2013-06-13 16:39:00,
2013-06-13 12:44:00,80.4,77.4,29.79,SW,220,23.0,28.1,91,0.00, ,,-99.99,VWS V12.07,2013-06-13 16:44:00,
2013-06-13 12:50:00,80.3,77.4,29.79,SW,223,22.7,28.1,91,0.00, ,,-99.99,VWS V12.07,2013-06-13 16:50:00,
2013-06-13 12:56:00,80.7,77.6,29.79,SSW,211,23.1,24.5,90,0.00, ,,-99.99,VWS V12.07,2013-06-13 16:56:00,
2013-06-13 13:01:00,80.6,47.5,29.78,SW,215,19.4,26.7,31,0.00, ,,-99.99,VWS V12.07,2013-06-13 17:01:00,
2013-06-13 13:06:00,80.5,76.9,29.78,SW,219,19.8,26.7,89,0.00, ,,-99.99,VWS V12.07,2013-06-13 17:06:00,
2013-06-13 13:13:00,80.4,77.2,29.78,SW,216,19.6,28.5,90,0.00, ,,-99.99,VWS V12.07,2013-06-13 17:13:00,
2013-06-13 13:18:00,80.3,76.9,29.77,SSW,209,19.3,27.0,90,0.00, ,,-99.99,VWS V12.07,2013-06-13 17:18:00,
2013-06-13 13:23:00,80.6,77.2,29.77,SW,223,24.4,27.7,89,0.00, ,,-99.99,VWS V12.07,2013-06-13 17:23:00,
2013-06-13 13:28:00,80.8,77.3,29.76,SSW,213,14.7,27.7,89,0.00, ,,-99.99,VWS V12.07,2013-06-13 17:28:00,
2013-06-13 13:35:00,80.4,76.6,29.76,SSW,212,22.2,27.8,88,0.00, ,,-99.99,VWS V12.07,2013-06-13 17:35:00,
2013-06-13 13:40:00,80.9,76.9,29.76,SW,219,18.1,28.5,88,0.00, ,,-99.99,VWS V12.07,2013-06-13 17:40:00,
2013-06-13 13:45:00,80.6,76.3,29.75,SW,218,22.1,28.5,87,0.00, ,,-99.99,VWS V12.07,2013-06-13 17:45:00,
2013-06-13 13:50:00,81.2,77.2,29.76,SW,222,19.6,28.5,88,0.00, ,,-99.99,VWS V12.07,2013-06-13 17:50:00,
2013-06-13 13:57:00,80.9,76.9,29.75,SW,220,22.1,26.5,88,0.00, ,,-99.99,VWS V12.07,2013-06-13 17:57:00,
2013-06-13 14:03:00,81.3,77.2,29.75,SSW,209,24.4,28.6,87,0.00, ,,-99.99,VWS V12.07,2013-06-13 18:03:00,
2013-06-13 14:09:00,81.1,76.9,29.75,SW,218,22.7,29.5,87,0.00, ,,-99.99,VWS V12.07,2013-06-13 18:09:00,
2013-06-13 14:15:00,81.1,76.9,29.75,SW,220,22.7,29.5,87,0.00, ,,-99.99,VWS V12.07,2013-06-13 18:15:00,
2013-06-13 14:20:00,81.3,76.9,29.74,SW,220,27.2,30.5,86,0.00, ,,-99.99,VWS V12.07,2013-06-13 18:20:00,
2013-06-13 14:26:00,81.0,76.7,29.74,SSW,209,22.2,31.9,87,0.00, ,,-99.99,VWS V12.07,2013-06-13 18:26:00,
2013-06-13 14:31:00,80.8,76.6,29.74,SSW,201,20.5,31.9,87,0.00, ,,-99.99,VWS V12.07,2013-06-13 18:31:00,
2013-06-13 14:37:00,81.2,77.0,29.73,SW,216,25.4,29.0,87,0.00, ,,-99.99,VWS V12.07,2013-06-13 18:37:00,
2013-06-13 14:43:00,80.4,76.0,29.73,SW,236,22.2,29.4,87,0.00, ,,-99.99,VWS V12.07,2013-06-13 18:43:00,
2013-06-13 14:48:00,80.9,76.7,29.73,SW,230,18.0,29.4,87,0.00, ,,-99.99,VWS V12.07,2013-06-13 18:48:00,
2013-06-13 14:53:00,81.4,76.9,29.73,SW,225,23.7,29.4,86,0.00, ,,-99.99,VWS V12.07,2013-06-13 18:53:00,
2013-06-13 14:59:00,88.9,84.2,29.73,WSW,254,15.9,29.8,86,0.00, ,,-99.99,VWS V12.07,2013-06-13 18:59:00,
2013-06-13 15:04:00,80.8,76.3,29.72,SW,232,22.1,33.9,86,0.00, ,,-99.99,VWS V12.07,2013-06-13 19:04:00,
2013-06-13 15:09:00,81.3,76.6,29.72,SSW,201,20.1,33.9,86,0.00, ,,-99.99,VWS V12.07,2013-06-13 19:09:00,
2013-06-13 15:15:00,81.4,76.5,29.72,SW,222,25.1,33.9,85,0.00, ,,-99.99,VWS V12.07,2013-06-13 19:15:00,
2013-06-13 15:20:00,81.4,76.2,29.72,South,182,14.7,27.2,84,0.00, ,,-99.99,VWS V12.07,2013-06-13 19:20:00,
2013-06-13 15:26:00,81.3,76.3,29.71,SSW,205,20.4,28.8,85,0.00, ,,-99.99,VWS V12.07,2013-06-13 19:26:00,
2013-06-13 15:32:00,81.6,76.5,29.71,SSW,198,26.5,30.1,85,0.00, ,,-99.99,VWS V12.07,2013-06-13 19:32:00,
2013-06-13 15:37:00,81.2,75.4,29.71,SSW,201,21.0,30.1,83,0.00, ,,-99.99,VWS V12.07,2013-06-13 19:37:00,
2013-06-13 15:43:00,81.2,76.1,29.70,SSW,209,26.3,30.1,85,0.00, ,,-99.99,VWS V12.07,2013-06-13 19:43:00,
2013-06-13 15:48:00,81.9,76.4,29.70,SSW,213,20.5,30.1,84,0.00, ,,-99.99,VWS V12.07,2013-06-13 19:48:00,
2013-06-13 15:53:00,81.3,76.0,29.70,SW,220,24.4,31.3,84,0.00, ,,-99.99,VWS V12.07,2013-06-13 19:53:00,
2013-06-13 15:58:00,81.6,76.4,29.70,SW,219,27.8,33.1,84,0.00, ,,-99.99,VWS V12.07,2013-06-13 19:58:00,
2013-06-13 16:04:00,81.7,76.6,29.70,SW,216,23.1,33.1,84,0.00, ,,-99.99,VWS V12.07,2013-06-13 20:04:00,
2013-06-13 16:11:00,81.9,76.2,29.70,SSW,211,23.8,33.1,83,0.00, ,,-99.99,VWS V12.07,2013-06-13 20:11:00,
2013-06-13 16:16:00,81.4,76.3,29.69,SSW,204,21.1,26.4,85,0.00, ,,-99.99,VWS V12.07,2013-06-13 20:16:00,
2013-06-13 16:22:00,81.4,76.4,29.69,SSW,211,24.3,32.9,85,0.00, ,,-99.99,VWS V12.07,2013-06-13 20:22:00,
2013-06-13 16:27:00,81.3,76.5,29.69,SSW,206,26.5,34.8,85,0.00, ,,-99.99,VWS V12.07,2013-06-13 20:27:00,
2013-06-13 16:33:00,81.2,76.5,29.69,SW,226,26.0,36.2,86,0.00, ,,-99.99,VWS V12.07,2013-06-13 20:33:00,
2013-06-13 16:38:00,81.5,76.7,29.69,SW,235,25.8,36.2,86,0.00, ,,-99.99,VWS V12.07,2013-06-13 20:38:00,
2013-06-13 16:44:00,81.3,76.4,29.69,SSW,201,27.0,36.2,85,0.00, ,,-99.99,VWS V12.07,2013-06-13 20:44:00,
2013-06-13 16:50:00,81.3,76.4,29.68,SSW,211,28.3,36.2,85,0.00, ,,-99.99,VWS V12.07,2013-06-13 20:50:00,
2013-06-13 16:56:00,81.4,76.4,29.69,SW,218,27.0,37.3,85,0.00, ,,-99.99,VWS V12.07,2013-06-13 20:56:00,
2013-06-13 17:01:00,81.0,75.9,29.69,SSW,209,26.2,37.3,85,0.00, ,,-99.99,VWS V12.07,2013-06-13 21:01:00,
2013-06-13 17:06:00,81.4,76.1,29.68,SW,216,21.7,37.3,84,0.00, ,,-99.99,VWS V12.07,2013-06-13 21:06:00,
2013-06-13 17:11:00,81.8,76.3,29.68,SSW,208,24.2,37.3,84,0.00, ,,-99.99,VWS V12.07,2013-06-13 21:11:00,
2013-06-13 17:18:00,81.4,76.0,29.68,SW,226,26.3,30.9,84,0.00, ,,-99.99,VWS V12.07,2013-06-13 21:18:00,
2013-06-13 17:24:00,81.5,0.0,29.68,SW,219,29.5,36.2,0,0.00, ,,-99.99,VWS V12.07,2013-06-13 21:24:00,
2013-06-13 17:29:00,81.8,76.2,29.67,WSW,239,29.6,36.2,83,0.00, ,,-99.99,VWS V12.07,2013-06-13 21:29:00,
2013-06-13 17:35:00,81.8,76.1,29.67,SW,232,21.9,36.6,83,0.00, ,,-99.99,VWS V12.07,2013-06-13 21:35:00,
2013-06-13 17:40:00,82.4,76.4,29.67,SW,225,29.4,33.9,82,0.00, ,,-99.99,VWS V12.07,2013-06-13 21:40:00,
2013-06-13 17:46:00,82.0,75.9,29.67,SW,220,25.9,34.3,82,0.00, ,,-99.99,VWS V12.07,2013-06-13 21:46:00,
2013-06-13 17:52:00,81.9,75.7,29.66,WSW,239,24.7,34.4,82,0.00, ,,-99.99,VWS V12.07,2013-06-13 21:52:00,
2013-06-13 17:58:00,82.1,75.5,29.67,SSW,208,24.7,37.1,80,0.00, ,,-99.99,VWS V12.07,2013-06-13 21:58:00,
2013-06-13 18:03:00,82.1,76.2,29.66,SSW,197,26.3,37.3,82,0.00, ,,-99.99,VWS V12.07,2013-06-13 22:03:00,
2013-06-13 18:09:00,82.0,76.2,29.66,SW,215,28.0,37.3,83,0.00, ,,-99.99,VWS V12.07,2013-06-13 22:09:00,
2013-06-13 18:15:00,81.5,75.9,29.66,SW,216,26.8,42.9,83,0.00, ,,-99.99,VWS V12.07,2013-06-13 22:15:00,
2013-06-13 18:21:00,81.4,75.8,29.66,SW,232,32.6,36.3,83,0.00, ,,-99.99,VWS V12.07,2013-06-13 22:21:00,
2013-06-13 18:26:00,81.3,75.8,29.66,SW,229,29.2,36.3,83,0.00, ,,-99.99,VWS V12.07,2013-06-13 22:26:00,
2013-06-13 18:31:00,81.5,76.6,29.66,SW,226,27.4,37.3,85,0.00, ,,-99.99,VWS V12.07,2013-06-13 22:31:00,
2013-06-13 18:37:00,81.2,76.1,29.66,SW,219,24.0,30.3,85,0.00, ,,-99.99,VWS V12.07,2013-06-13 22:37:00,
2013-06-13 18:43:00,81.3,76.5,29.66,SW,236,29.7,35.2,85,0.00, ,,-99.99,VWS V12.07,2013-06-13 22:43:00,
2013-06-13 18:48:00,81.1,76.2,29.66,SSW,213,25.4,35.2,85,0.00, ,,-99.99,VWS V12.07,2013-06-13 22:48:00,
2013-06-13 18:53:00,81.0,76.4,29.66,SW,226,29.7,35.2,86,0.00, ,,-99.99,VWS V12.07,2013-06-13 22:53:00,
2013-06-13 19:00:00,80.6,76.0,29.66,SW,219,31.1,34.1,86,0.00, ,,-99.99,VWS V12.07,2013-06-13 23:00:00,
2013-06-13 19:05:00,81.1,76.5,29.66,SW,233,27.6,34.1,86,0.00, ,,-99.99,VWS V12.07,2013-06-13 23:05:00,
2013-06-13 19:11:00,80.8,76.4,29.67,WSW,237,31.9,34.7,86,0.00, ,,-99.99,VWS V12.07,2013-06-13 23:11:00,
2013-06-13 19:18:00,81.5,77.4,29.68,SW,233,20.8,35.0,87,0.00, ,,-99.99,VWS V12.07,2013-06-13 23:18:00,
2013-06-13 19:23:00,80.6,76.4,29.67,SSW,212,27.0,37.3,87,0.00, ,,-99.99,VWS V12.07,2013-06-13 23:23:00,
2013-06-13 19:29:00,80.5,76.5,29.68,SW,232,26.1,37.3,88,0.00, ,,-99.99,VWS V12.07,2013-06-13 23:29:00,
2013-06-13 19:34:00,80.5,76.5,29.67,SW,228,26.5,37.3,88,0.00, ,,-99.99,VWS V12.07,2013-06-13 23:34:00,
2013-06-13 19:40:00,80.3,76.3,29.67,WSW,244,28.0,31.5,88,0.00, ,,-99.99,VWS V12.07,2013-06-13 23:40:00,
2013-06-13 19:45:00,80.8,77.0,29.68,SW,225,26.3,31.5,88,0.00, ,,-99.99,VWS V12.07,2013-06-13 23:45:00,
2013-06-13 19:51:00,80.9,77.0,29.68,SW,216,24.8,35.0,88,0.00, ,,-99.99,VWS V12.07,2013-06-13 23:51:00,
2013-06-13 19:56:00,80.5,76.4,29.68,SSW,194,20.8,23.5,87,0.00, ,,-99.99,VWS V12.07,2013-06-13 23:56:00,
2013-06-13 20:02:00,81.1,77.0,29.68,SW,232,29.4,32.0,87,0.00, ,,-99.99,VWS V12.07,2013-06-14 00:02:00,
2013-06-13 20:07:00,81.0,76.9,29.68,SW,225,27.5,32.4,87,0.00, ,,-99.99,VWS V12.07,2013-06-14 00:07:00,
2013-06-13 20:14:00,80.6,76.5,29.68,SW,219,28.0,32.7,87,0.00, ,,-99.99,VWS V12.07,2013-06-14 00:14:00,
2013-06-13 20:19:00,80.8,76.8,29.68,SW,232,30.4,34.7,88,0.00, ,,-99.99,VWS V12.07,2013-06-14 00:19:00,
2013-06-13 20:25:00,80.4,76.3,29.68,SW,229,31.8,37.5,87,0.00, ,,-99.99,VWS V12.07,2013-06-14 00:25:00,
2013-06-13 20:30:00,80.5,76.6,29.68,SW,215,26.9,38.5,88,0.00, ,,-99.99,VWS V12.07,2013-06-14 00:30:00,
2013-06-13 20:36:00,81.5,77.4,29.68,SSW,206,23.1,25.3,88,0.00, ,,-99.99,VWS V12.07,2013-06-14 00:36:00,
2013-06-13 20:41:00,81.1,76.7,29.68,SW,228,26.7,34.9,87,0.00, ,,-99.99,VWS V12.07,2013-06-14 00:41:00,
2013-06-13 20:47:00,80.6,76.4,29.69,WSW,256,29.9,36.0,87,0.00, ,,-99.99,VWS V12.07,2013-06-14 00:47:00,
2013-06-13 20:52:00,80.5,76.2,29.70,West,265,23.2,36.0,87,0.00, ,,-99.99,VWS V12.07,2013-06-14 00:52:00,
2013-06-13 20:59:00,81.4,72.6,29.74,WNW,299,26.5,26.5,75,0.00, ,,-99.99,VWS V12.07,2013-06-14 00:59:00,
2013-06-13 21:04:00,82.2,63.0,29.74,WNW,303,27.9,34.3,52,0.00, ,,-99.99,VWS V12.07,2013-06-14 01:04:00,
2013-06-13 21:10:00,81.1,64.0,29.74,NW,310,18.3,34.3,56,0.00, ,,-99.99,VWS V12.07,2013-06-14 01:10:00,
2013-06-13 21:15:00,79.7,63.8,29.73,WNW,301,15.1,34.3,58,0.00, ,,-99.99,VWS V12.07,2013-06-14 01:15:00,
2013-06-13 21:21:00,78.5,64.6,29.74,West,272,12.7,24.6,62,0.00, ,,-99.99,VWS V12.07,2013-06-14 01:21:00,
2013-06-13 21:26:00,76.8,64.9,29.74,WNW,289,14.5,24.6,67,0.00, ,,-99.99,VWS V12.07,2013-06-14 01:26:00,
2013-06-13 21:32:00,75.9,65.8,29.74,WNW,288,7.6,24.6,71,0.01, ,,-99.99,VWS V12.07,2013-06-14 01:32:00,
2013-06-13 21:37:00,75.6,65.8,29.74,West,272,11.5,12.5,72,0.01, ,,-99.99,VWS V12.07,2013-06-14 01:37:00,
2013-06-13 21:43:00,76.2,66.9,29.73,SW,230,12.9,15.0,73,0.01, ,,-99.99,VWS V12.07,2013-06-14 01:43:00,
2013-06-13 21:48:00,76.4,68.8,29.72,SW,229,18.6,23.0,77,0.01, ,,-99.99,VWS V12.07,2013-06-14 01:48:00,
2013-06-13 21:54:00,76.3,68.8,29.70,SW,223,16.0,23.0,78,0.01, ,,-99.99,VWS V12.07,2013-06-14 01:54:00,
2013-06-13 21:59:00,76.3,68.8,29.70,SW,218,15.5,20.7,78,0.01, ,,-99.99,VWS V12.07,2013-06-14 01:59:00,
2013-06-13 22:05:00,76.7,70.0,29.70,WSW,246,13.5,20.7,80,0.01, ,,-99.99,VWS V12.07,2013-06-14 02:05:00,
2013-06-13 22:11:00,76.5,70.3,29.69,SW,233,10.6,20.7,81,0.01, ,,-99.99,VWS V12.07,2013-06-14 02:11:00,
2013-06-13 22:16:00,75.8,70.1,29.69,SW,215,8.1,9.5,82,0.01, ,,-99.99,VWS V12.07,2013-06-14 02:16:00,
2013-06-13 22:22:00,76.2,71.1,29.69,SW,216,15.6,16.7,84,0.01, ,,-99.99,VWS V12.07,2013-06-14 02:22:00,
2013-06-13 22:28:00,76.4,71.0,29.70,SW,236,11.3,18.5,83,0.01, ,,-99.99,VWS V12.07,2013-06-14 02:28:00,
2013-06-13 22:34:00,76.4,71.1,29.70,SW,225,13.1,18.5,84,0.01, ,,-99.99,VWS V12.07,2013-06-14 02:34:00,
2013-06-13 22:41:00,76.8,70.2,29.71,WSW,258,10.9,15.7,80,0.00, ,,-99.99,VWS V12.07,2013-06-14 02:41:00,
2013-06-13 22:46:00,77.3,70.7,29.71,WNW,301,11.5,15.7,80,0.00, ,,-99.99,VWS V12.07,2013-06-14 02:46:00,
2013-06-13 22:51:00,77.3,70.8,29.71,WNW,294,9.4,15.7,80,0.00, ,,-99.99,VWS V12.07,2013-06-14 02:51:00,
2013-06-13 22:57:00,77.5,70.3,29.71,NW,305,9.5,12.9,78,0.00, ,,-99.99,VWS V12.07,2013-06-14 02:57:00,
2013-06-13 23:03:00,77.9,70.1,29.71,WSW,246,7.0,12.9,77,0.00, ,,-99.99,VWS V12.07,2013-06-14 03:03:00,
2013-06-13 23:09:00,78.3,68.4,29.71,West,274,9.3,13.0,72,0.00, ,,-99.99,VWS V12.07,2013-06-14 03:09:00,
2013-06-13 23:14:00,79.1,68.3,29.71,West,268,11.2,13.7,70,0.00, ,,-99.99,VWS V12.07,2013-06-14 03:14:00,
2013-06-13 23:19:00,13.0,4.5,29.71,NNE,25,8.1,13.6,68,0.00, ,,-99.99,VWS V12.07,2013-06-14 03:19:00,
2013-06-13 23:24:00,79.2,68.2,29.71,WSW,243,9.5,14.5,69,0.00, ,,-99.99,VWS V12.07,2013-06-14 03:24:00,
2013-06-13 23:29:00,78.7,68.1,29.71,SW,230,9.4,14.5,70,0.00, ,,-99.99,VWS V12.07,2013-06-14 03:29:00,
2013-06-13 23:36:00,78.8,69.4,29.75,WSW,253,12.4,18.1,73,0.00, ,,-99.99,VWS V12.07,2013-06-14 03:36:00,
2013-06-13 23:42:00,79.1,69.0,29.76,WNW,298,14.3,25.3,71,0.00, ,,-99.99,VWS V12.07,2013-06-14 03:42:00,
2013-06-13 23:47:00,78.1,67.3,29.74,NW,318,21.8,29.0,69,0.00, ,,-99.99,VWS V12.07,2013-06-14 03:47:00,
2013-06-13 23:53:00,74.5,65.8,29.74,NW,312,18.6,29.0,74,0.00, ,,-99.99,VWS V12.07,2013-06-14 03:53:00,
2013-06-13 23:58:00,73.8,68.7,29.75,West,270,12.1,19.8,84,0.01, ,,-99.99,VWS V12.07,2013-06-14 03:58:00,